GW0378 Weather Reports


time (UTC)temp
F
wind
direction
speed
knots
gust
knots
rain 1hr
in
rain 24hr
in
rain mn
in
humidity
%
barometer
mb
20260509205207 68 337 2.6 4.3 0.00 0.00 0.00 34 1019.7
20260509204703 67 198 0.0 6.1 0.00 0.00 0.00 35 1019.6
20260509204159 68 314 4.3 6.1 0.00 0.00 0.00 36 1019.7
20260509203655 66 15 5.2 10.4 0.00 0.00 0.00 34 1019.9
20260509203154 66 190 0.0 4.3 0.00 0.00 0.00 34 1019.9
20260509202649 66 292 3.5 10.4 0.00 0.00 0.00 34 1020.0
20260509202144 67 17 5.2 7.0 0.00 0.00 0.00 35 1019.9
20260509201640 67 326 2.6 4.3 0.00 0.00 0.00 35 1019.9
20260509201137 66 258 2.6 7.0 0.00 0.00 0.00 36 1020.1
20260509200633 67 301 4.3 4.3 0.00 0.00 0.00 37 1020.0
20260509200129 67 237 1.7 4.3 0.00 0.00 0.00 39 1019.9
20260509195625 65 60 2.6 9.6 0.00 0.00 0.00 35 1020.0
20260509195120 66 318 2.6 8.7 0.00 0.00 0.00 36 1019.9
20260509194619 65 6 0.9 7.8 0.00 0.00 0.00 35 1020.1
20260509194117 64 203 0.0 9.6 0.00 0.00 0.00 36 1020.1
20260509193612 65 261 0.0 4.3 0.00 0.00 0.00 36 1019.9
20260509193108 65 338 2.6 3.5 0.00 0.00 0.00 36 1020.2
20260509192605 63 180 0.0 6.1 0.00 0.00 0.00 36 1020.2
20260509192100 64 61 4.3 6.1 0.00 0.00 0.00 36 1020.3
20260509191555 64 43 3.5 5.2 0.00 0.00 0.00 37 1020.5
20260509191051 64 290 1.7 4.3 0.00 0.00 0.00 39 1020.3
20260509190548 64 330 4.3 5.2 0.00 0.00 0.00 39 1020.3
20260509190046 64 300 1.7 4.3 0.00 0.00 0.00 37 1020.5
20260509185543 64 268 5.2 5.2 0.00 0.00 0.00 37 1020.7
20260509185039 64 288 1.7 6.1 0.00 0.00 0.00 38 1020.3
20260509184538 64 48 1.7 3.5 0.00 0.00 0.00 36 1020.3
20260509184033 64 180 0.9 3.5 0.00 0.00 0.00 35 1020.6
20260509183529 62 207 2.6 4.3 0.00 0.00 0.00 36 1020.6
20260509183025 62 165 0.0 5.2 0.00 0.00 0.00 37 1020.6
20260509182521 62 315 3.5 7.0 0.00 0.00 0.00 38 1020.6
20260509182019 62 308 4.3 4.3 0.00 0.00 0.00 39 1020.5
20260509181517 62 274 4.3 6.1 0.00 0.00 0.00 39 1020.5
20260509181014 64 296 2.6 2.6 0.00 0.00 0.00 37 1020.6
20260509180509 62 207 2.6 3.5 0.00 0.00 0.00 39 1020.6
20260509180008 63 201 1.7 2.6 0.00 0.00 0.00 38 1020.7
20260509175502 61 245 1.7 2.6 0.00 0.00 0.00 40 1020.7
20260509174959 60 340 2.6 5.2 0.00 0.00 0.00 39 1020.9
20260509174456 61 17 2.6 2.6 0.00 0.00 0.00 38 1020.8
20260509173950 60 226 5.2 6.1 0.00 0.00 0.00 39 1021.0
20260509173445 60 0 2.6 6.1 0.00 0.00 0.00 39 1021.0
20260509172942 60 341 1.7 3.5 0.00 0.00 0.00 41 1020.7
20260509172439 59 285 2.6 6.1 0.00 0.00 0.00 39 1020.9
20260509171934 60 307 4.3 4.3 0.00 0.00 0.00 42 1020.8
20260509171431 60 274 1.7 5.2 0.00 0.00 0.00 39 1020.7
20260509170927 60 337 2.6 5.2 0.00 0.00 0.00 39 1021.0
20260509170423 59 270 0.0 4.3 0.00 0.00 0.00 39 1020.9
20260509165918 58 293 2.6 3.5 0.00 0.00 0.00 43 1020.9
20260509165413 59 300 1.7 5.2 0.00 0.00 0.00 40 1020.9
20260509164908 57 311 2.6 4.3 0.00 0.00 0.00 40 1020.6
20260509164405 58 322 2.6 4.3 0.00 0.00 0.00 42 1021.0
20260509163901 58 90 0.0 1.7 0.00 0.00 0.00 40 1020.9
20260509163358 58 50 3.5 3.5 0.00 0.00 0.00 40 1021.0
20260509162857 57 291 2.6 3.5 0.00 0.00 0.00 40 1020.9
20260509162356 56 90 0.0 4.3 0.00 0.00 0.00 42 1020.8
20260509161852 57 66 1.7 2.6 0.00 0.00 0.00 43 1021.0
20260509161348 56 128 1.7 4.3 0.00 0.00 0.00 43 1021.2
20260509160844 55 99 1.7 3.5 0.00 0.00 0.00 46 1020.9
20260509160340 54 121 1.7 2.6 0.00 0.00 0.00 45 1021.1
20260509155835 54 57 1.7 3.5 0.00 0.00 0.00 47 1021.2
20260509155332 54 33 1.7 2.6 0.00 0.00 0.00 49 1021.0
20260509154828 53 12 0.9 2.6 0.00 0.00 0.00 52 1021.1
20260509154325 54 63 1.7 1.7 0.00 0.00 0.00 51 1020.8
20260509153822 53 41 1.7 2.6 0.00 0.00 0.00 52 1021.1
20260509153319 53 327 1.7 1.7 0.00 0.00 0.00 51 1021.1
20260509152815 55 343 2.6 3.5 0.00 0.00 0.00 50 1021.1
20260509152311 53 294 0.0 3.5 0.00 0.00 0.00 54 1020.8
20260509151809 52 278 0.0 2.6 0.00 0.00 0.00 56 1021.0
20260509151305 53 357 2.6 2.6 0.00 0.00 0.00 56 1020.9
20260509150804 53 29 0.9 2.6 0.00 0.00 0.00 56 1020.8
20260509150301 52 321 1.7 3.5 0.00 0.00 0.00 59 1020.9
20260509145758 51 109 1.7 2.6 0.00 0.00 0.00 58 1020.7
20260509145258 50 45 1.7 2.6 0.00 0.00 0.00 62 1020.8
20260509144754 49 300 0.0 2.6 0.00 0.00 0.00 62 1020.8
20260509144251 49 90 0.9 2.6 0.00 0.00 0.00 62 1020.8
20260509143748 49 315 1.7 2.6 0.00 0.00 0.00 62 1020.8
20260509143246 50 102 2.6 2.6 0.00 0.00 0.00 59 1020.8
20260509142742 48 285 0.0 0.9 0.00 0.00 0.00 63 1020.9
20260509142238 48 0 2.6 2.6 0.00 0.00 0.00 63 1020.8
20260509141734 47 11 0.9 3.5 0.00 0.00 0.00 63 1020.9
20260509141231 47 113 2.6 3.5 0.00 0.00 0.00 63 1020.5
20260509140728 46 244 5.2 5.2 0.00 0.00 0.00 64 1020.9
20260509140225 46 68 2.6 4.3 0.00 0.00 0.00 65 1020.5
20260509135722 47 82 0.0 3.5 0.00 0.00 0.00 63 1020.3
20260509135220 46 274 2.6 4.3 0.00 0.00 0.00 65 1020.3
20260509134717 45 73 3.5 5.2 0.00 0.00 0.00 65 1020.3
20260509134214 46 81 1.7 2.6 0.00 0.00 0.00 63 1020.2
20260509133711 45 35 0.0 3.5 0.00 0.00 0.00 63 1020.3
20260509133208 45 106 1.7 3.5 0.00 0.00 0.00 62 1020.1
20260509132707 45 270 2.6 4.3 0.00 0.00 0.00 64 1019.9
20260509132205 44 164 2.6 4.3 0.00 0.00 0.00 66 1020.1
20260509131701 43 112 2.6 4.3 0.00 0.00 0.00 65 1019.7
20260509131158 42 106 0.0 2.6 0.00 0.00 0.00 67 1019.7
20260509130653 43 108 4.3 4.3 0.00 0.00 0.00 65 1019.8
20260509130150 43 103 3.5 3.5 0.00 0.00 0.00 64 1019.6
20260509125647 43 98 1.7 3.5 0.00 0.00 0.00 64 1019.5
20260509125143 43 117 7.0 7.8 0.00 0.00 0.00 65 1019.5
20260509124640 42 110 4.3 6.1 0.00 0.00 0.00 65 1019.5
20260509124137 42 129 5.2 7.0 0.00 0.00 0.00 67 1019.3
20260509123635 42 110 3.5 4.3 0.00 0.00 0.00 67 1019.3
20260509123132 42 127 4.3 5.2 0.00 0.00 0.00 65 1019.1
20260509122627 42 74 1.7 4.3 0.00 0.00 0.00 64 1018.8
20260509122124 41 117 3.5 4.3 0.00 0.00 0.00 67 1019.0
20260509121621 41 118 2.6 4.3 0.00 0.00 0.00 68 1018.9
20260509121119 41 142 1.7 1.7 0.00 0.00 0.00 67 1018.8
20260509120617 41 83 2.6 2.6 0.00 0.00 0.00 68 1018.7
20260509120115 41 110 2.6 2.6 0.00 0.00 0.00 67 1018.9
20260509115612 42 105 0.9 2.6 0.00 0.00 0.00 67 1018.6
20260509115109 41 115 4.3 5.2 0.00 0.00 0.00 67 1018.7
20260509114607 41 106 1.7 3.5 0.00 0.00 0.00 67 1018.7
20260509114106 42 95 1.7 1.7 0.00 0.00 0.00 66 1018.9
20260509113604 42 120 0.0 1.7 0.00 0.00 0.00 66 1018.7
20260509113101 42 107 0.0 3.5 0.00 0.00 0.00 65 1018.6
20260509112557 43 151 1.7 1.7 0.00 0.00 0.00 63 1018.7
20260509112054 43 286 0.0 0.0 0.00 0.00 0.00 62 1018.6
20260509111552 44 74 0.0 3.5 0.00 0.00 0.00 61 1018.5
20260509111048 43 90 0.0 4.3 0.00 0.00 0.00 61 1018.5
20260509110545 44 85 3.5 4.3 0.00 0.00 0.00 61 1018.6
20260509110042 44 103 2.6 3.5 0.00 0.00 0.00 61 1018.7
20260509105541 44 144 1.7 2.6 0.00 0.00 0.00 59 1018.6
20260509105038 43 141 2.6 2.6 0.00 0.00 0.00 62 1018.5
20260509104535 42 130 2.6 2.6 0.00 0.00 0.00 62 1018.6
20260509104032 42 114 2.6 2.6 0.00 0.00 0.00 62 1018.6
20260509103529 43 117 1.7 2.6 0.00 0.00 0.00 62 1018.5
20260509103028 44 106 3.5 3.5 0.00 0.00 0.00 60 1018.3
20260509102524 44 111 2.6 2.6 0.00 0.00 0.00 58 1018.5
20260509102021 44 132 1.7 2.6 0.00 0.00 0.00 60 1018.5
20260509101517 45 135 1.7 1.7 0.00 0.00 0.00 58 1018.5
20260509101015 45 124 1.7 3.5 0.00 0.00 0.00 57 1018.3
20260509100512 47 124 2.6 3.5 0.00 0.00 0.00 53 1018.5
20260509100009 46 63 1.7 2.6 0.00 0.00 0.00 55 1018.2
20260509095505 46 59 2.6 6.1 0.00 0.00 0.00 55 1018.0
20260509095003 45 105 0.0 2.6 0.00 0.00 0.00 57 1018.1
20260509094459 46 65 2.6 4.3 0.00 0.00 0.00 55 1018.1
20260509093956 47 52 4.3 7.0 0.00 0.00 0.00 53 1018.0
20260509093454 46 57 1.7 3.5 0.00 0.00 0.00 54 1018.0
20260509092951 49 94 1.7 2.6 0.00 0.00 0.00 49 1018.0
20260509092449 51 257 2.6 7.0 0.00 0.00 0.00 46 1017.9
20260509091948 46 99 1.7 4.3 0.00 0.00 0.00 54 1018.0
20260509091444 46 109 4.3 4.3 0.00 0.00 0.00 53 1018.0
20260509090941 46 103 2.6 5.2 0.00 0.00 0.00 54 1018.0
20260509090439 45 106 1.7 2.6 0.00 0.00 0.00 57 1018.0
20260509085936 46 117 2.6 3.5 0.00 0.00 0.00 55 1017.9
20260509085433 46 99 3.5 4.3 0.00 0.00 0.00 53 1017.8
20260509084929 47 97 3.5 4.3 0.00 0.00 0.00 51 1017.8
20260509084426 47 84 2.6 5.2 0.00 0.00 0.00 51 1018.1
20260509083924 47 110 4.3 5.2 0.00 0.00 0.00 52 1017.8
20260509083421 46 120 4.3 7.0 0.00 0.00 0.00 52 1017.8
20260509082917 46 107 3.5 4.3 0.00 0.00 0.00 53 1017.8
20260509082415 47 105 3.5 3.5 0.00 0.00 0.00 52 1017.7
20260509081911 47 123 2.6 3.5 0.00 0.00 0.00 51 1017.7
20260509081409 48 127 2.6 2.6 0.00 0.00 0.00 50 1017.8
20260509080906 48 116 2.6 3.5 0.00 0.00 0.00 49 1017.8
20260509080404 48 107 3.5 3.5 0.00 0.00 0.00 49 1017.7
20260509075902 47 138 2.6 4.3 0.00 0.00 0.00 51 1017.8
20260509075359 48 107 2.6 3.5 0.00 0.00 0.00 49 1017.7
20260509074856 47 71 1.7 3.5 0.00 0.00 0.00 50 1017.4
20260509074354 48 105 2.6 2.6 0.00 0.00 0.00 50 1017.6
20260509073850 48 113 1.7 2.6 0.00 0.00 0.00 49 1017.7
20260509073346 50 138 2.6 2.6 0.00 0.00 0.00 46 1017.5
20260509072843 49 111 2.6 3.5 0.00 0.00 0.00 46 1017.6
20260509072339 49 96 2.6 3.5 0.00 0.00 0.00 47 1017.5
20260509071836 50 107 2.6 2.6 0.00 0.00 0.00 45 1017.4
20260509071333 51 112 1.7 2.6 0.00 0.00 0.00 44 1017.4
20260509070830 52 117 2.6 2.6 0.00 0.00 0.00 42 1017.4
20260509070327 52 143 1.7 1.7 0.00 0.00 0.00 41 1017.4
20260509065823 52 101 1.7 2.6 0.00 0.00 0.00 41 1017.5
20260509065319 54 94 2.6 2.6 0.00 0.00 0.00 39 1017.2
20260509064815 54 188 0.0 2.6 0.00 0.00 0.00 38 1017.2
20260509064313 55 195 0.9 2.6 0.00 0.00 0.00 38 1017.2
20260509063811 55 180 0.0 2.6 0.00 0.00 0.00 38 1017.0
20260509063307 56 295 1.7 3.5 0.00 0.00 0.00 37 1017.0
20260509062804 56 214 2.6 3.5 0.00 0.00 0.00 36 1016.9
20260509062301 56 248 5.2 7.0 0.00 0.00 0.00 35 1017.0
20260509061758 56 233 2.6 4.3 0.00 0.00 0.00 36 1016.9
20260509061256 57 273 2.6 7.8 0.00 0.00 0.00 35 1017.0
20260509060753 56 262 1.7 7.8 0.00 0.00 0.00 35 1017.1
20260509060250 55 172 0.0 2.6 0.00 0.00 0.00 39 1017.1
20260509055745 56 250 1.7 2.6 0.00 0.00 0.00 37 1016.9
20260509055241 56 235 3.5 4.3 0.00 0.00 0.00 37 1017.1
20260509054738 57 280 1.7 4.3 0.00 0.00 0.00 37 1016.7
20260509054235 57 214 2.6 3.5 0.00 0.00 0.00 36 1016.8
20260509053733 58 284 3.5 6.1 0.00 0.00 0.00 35 1016.8
20260509053230 58 246 3.5 12.2 0.00 0.00 0.00 34 1016.7
20260509052728 57 243 3.5 7.8 0.00 0.00 0.00 36 1016.8
20260509052225 57 276 0.0 7.0 0.00 0.00 0.00 37 1016.7
20260509051723 57 248 2.6 2.6 0.00 0.00 0.00 38 1016.7
20260509051221 56 297 0.0 1.7 0.00 0.00 0.00 40 1016.6
20260509050717 57 200 0.9 4.3 0.00 0.00 0.00 38 1016.7
20260509050213 58 244 2.6 4.3 0.00 0.00 0.00 35 1016.7
20260509045711 58 319 3.5 3.5 0.00 0.00 0.00 35 1016.8
20260509045208 59 284 2.6 3.5 0.00 0.00 0.00 35 1016.7
20260509044705 59 275 1.7 5.2 0.00 0.00 0.00 34 1016.6
20260509044203 59 302 2.6 2.6 0.00 0.00 0.00 33 1016.7
20260509043659 60 277 2.6 3.5 0.00 0.00 0.00 33 1016.5
20260509043155 60 249 3.5 6.1 0.00 0.00 0.00 33 1016.5
20260509042651 60 275 3.5 7.8 0.00 0.00 0.00 32 1016.5
20260509042147 60 243 4.3 5.2 0.00 0.00 0.00 32 1016.2
20260509041644 60 276 4.3 4.3 0.00 0.00 0.00 32 1016.2
20260509041141 61 263 3.5 8.7 0.00 0.00 0.00 31 1016.2
20260509040640 60 210 1.7 4.3 0.00 0.00 0.00 32 1016.0
20260509040136 61 236 3.5 4.3 0.00 0.00 0.00 31 1016.4
20260509035633 61 283 0.0 4.3 0.00 0.00 0.00 31 1016.2
20260509035130 62 278 0.9 6.1 0.00 0.00 0.00 30 1016.0
20260509034628 62 248 3.5 11.3 0.00 0.00 0.00 30 1016.0
20260509034125 61 289 7.0 13.9 0.00 0.00 0.00 30 1015.8
20260509033621 61 261 4.3 12.2 0.00 0.00 0.00 29 1015.8
20260509033118 61 243 4.3 8.7 0.00 0.00 0.00 30 1015.6
20260509032616 61 233 7.8 7.8 0.00 0.00 0.00 31 1015.7
20260509032113 62 245 1.7 7.8 0.00 0.00 0.00 31 1015.2
20260509031611 62 241 4.3 11.3 0.00 0.00 0.00 30 1015.5
20260509031108 61 160 0.9 6.1 0.00 0.00 0.00 34 1015.4
20260509030606 62 270 2.6 5.2 0.00 0.00 0.00 34 1015.4
20260509025558 62 252 2.6 8.7 0.00 0.00 0.00 32 1014.9
20260509025054 62 295 6.1 11.3 0.00 0.00 0.00 33 1014.9
20260509024550 63 261 4.3 8.7 0.00 0.00 0.00 34 1014.7
20260509024046 63 222 9.6 13.9 0.00 0.00 0.00 33 1014.4
20260509023544 63 230 4.3 9.6 0.00 0.00 0.00 34 1014.4
20260509023041 64 247 5.2 10.4 0.00 0.00 0.00 34 1014.4
20260509022537 64 245 10.4 14.8 0.00 0.00 0.00 34 1014.4
20260509022035 64 210 5.2 11.3 0.00 0.00 0.00 33 1014.1
20260509021532 65 250 7.8 13.0 0.00 0.00 0.00 32 1014.1
20260509021029 66 260 5.2 10.4 0.00 0.00 0.00 31 1014.1
20260509020528 67 274 5.2 9.6 0.00 0.00 0.00 30 1014.0
20260509020024 67 268 4.3 9.6 0.00 0.00 0.00 28 1013.9
20260509015523 67 270 7.8 10.4 0.00 0.00 0.00 27 1013.8
20260509015020 67 257 5.2 12.2 0.00 0.00 0.00 26 1013.8
20260509014516 67 265 3.5 8.7 0.00 0.00 0.00 27 1013.9
20260509014012 67 278 5.2 5.2 0.00 0.00 0.00 27 1013.7
20260509013510 66 243 3.5 7.8 0.00 0.00 0.00 26 1013.8
20260509013005 66 244 6.1 12.2 0.00 0.00 0.00 26 1013.9
20260509012502 66 229 5.2 13.0 0.00 0.00 0.00 25 1013.8
20260509011959 66 254 9.6 20.9 0.00 0.00 0.00 25 1013.7
20260509011457 66 223 7.8 13.0 0.00 0.00 0.00 24 1013.7
20260509010954 65 232 4.3 10.4 0.00 0.00 0.00 26 1013.7
20260509010452 65 270 2.6 7.0 0.00 0.00 0.00 25 1013.7
20260509005948 65 261 9.6 11.3 0.00 0.00 0.00 24 1013.8
20260509005446 65 238 6.1 9.6 0.00 0.00 0.00 24 1013.6
20260509004946 65 250 7.8 11.3 0.00 0.00 0.00 25 1013.5
20260509004443 66 245 1.7 7.8 0.00 0.00 0.00 26 1013.5
20260509003941 65 277 3.5 8.7 0.00 0.00 0.00 25 1013.6
20260509003439 66 259 5.2 12.2 0.00 0.00 0.00 25 1013.6
20260509002935 66 203 2.6 5.2 0.00 0.00 0.00 26 1013.5
20260509002433 66 223 3.5 7.8 0.00 0.00 0.00 25 1013.5
20260509001930 66 277 2.6 10.4 0.00 0.00 0.00 25 1013.6
20260509001426 66 235 2.6 7.8 0.00 0.00 0.00 28 1013.5
20260509000923 66 246 7.0 12.2 0.00 0.00 0.00 25 1013.7
20260509000421 66 239 3.5 10.4 0.00 0.00 0.00 26 1013.4
20260508235917 66 233 6.1 13.0 0.00 0.00 0.00 27 1013.6
20260508235415 66 263 8.7 17.4 0.00 0.00 0.00 26 1013.5
20260508234911 67 239 9.6 17.4 0.00 0.00 0.00 25 1013.4
20260508234409 67 244 9.6 15.6 0.00 0.00 0.00 27 1013.4
20260508233906 67 232 2.6 8.7 0.00 0.00 0.00 27 1013.5
20260508233406 68 283 6.1 11.3 0.00 0.00 0.00 26 1013.4
20260508232902 68 240 3.5 17.4 0.00 0.00 0.00 27 1013.4
20260508232358 68 255 2.6 13.9 0.00 0.00 0.00 28 1013.5
20260508231857 69 249 2.6 7.0 0.00 0.00 0.00 28 1013.2
20260508231353 69 212 5.2 6.1 0.00 0.00 0.00 29 1013.4
20260508230850 69 259 4.3 12.2 0.00 0.00 0.00 29 1013.5
20260508230346 69 252 1.7 10.4 0.00 0.00 0.00 35 1013.4
20260508225844 69 226 6.1 9.6 0.00 0.00 0.00 36 1013.2
20260508225340 68 275 4.3 9.6 0.00 0.00 0.00 38 1013.1
20260508224838 69 257 3.5 6.1 0.00 0.00 0.00 41 1013.4
20260508224335 69 283 2.6 4.3 0.00 0.00 0.00 40 1013.2
20260508223833 69 257 3.5 5.2 0.00 0.00 0.00 40 1013.2
20260508223330 68 278 4.3 4.3 0.00 0.00 0.00 40 1013.5
20260508222827 69 305 2.6 4.3 0.00 0.00 0.00 42 1013.4
20260508222325 69 301 1.7 3.5 0.00 0.00 0.00 42 1013.1
20260508221821 70 304 0.0 2.6 0.00 0.00 0.00 39 1013.4
20260508221316 70 220 1.7 1.7 0.00 0.00 0.00 39 1013.2
20260508220813 70 75 0.9 2.6 0.00 0.00 0.00 39 1013.1
20260508220310 69 255 0.0 2.6 0.00 0.00 0.00 38 1013.2
20260508215807 69 257 1.7 4.3 0.00 0.00 0.00 39 1013.4
20260508215306 69 337 0.0 4.3 0.00 0.00 0.00 39 1013.2
20260508214800 69 5 0.9 3.5 0.00 0.00 0.00 39 1013.4
20260508214257 69 282 0.0 5.2 0.00 0.00 0.00 39 1013.4
20260508213754 69 356 1.7 4.3 0.00 0.00 0.00 39 1013.4
20260508213250 70 261 3.5 3.5 0.00 0.00 0.00 41 1013.4
20260508212747 70 286 0.0 2.6 0.00 0.00 0.00 41 1013.6
20260508212243 69 4 1.7 3.5 0.00 0.00 0.00 40 1013.7
20260508211739 69 0 1.7 3.5 0.00 0.00 0.00 41 1013.6
20260508211235 69 236 2.6 2.6 0.00 0.00 0.00 41 1013.6
20260508210733 69 277 0.9 4.3 0.00 0.00 0.00 41 1013.7
20260508210229 69 11 1.7 4.3 0.00 0.00 0.00 40 1013.8
20260508205726 69 346 0.9 2.6 0.00 0.00 0.00 39 1013.8